Location: Gro� Glienicke
(52.4675°N, 13.1079°E)
Time: 01:45:03
(UTC+00:00)

Cosmos 1709 Rocket - Pass Details

Date: 06 July 2020
Orbit: 948 x 1001 km, 82.9° (Epoch: 04 August)

Event Time Altitude Azimuth Distance (km) Brightness Sun altitude
Rises 20:50:18 0° 198° (SSW) 3,679 6.6 -8.8°
Reaches altitude 10° 20:52:49 10° 201° (SSW) 2,742 6.0 -9.0°
Maximum altitude 20:59:05 67° 283° (WNW) 1,077 4.4 -9.5°
Drops below altitude 10° 21:05:28 10° 7° (N) 2,784 7.3 -10.0°
Sets 21:08:03 0° 10° (N) 3,740 7.9 -10.2°
